Terminal Aerodrome Forecast
Issued by NWS

Home | Current Version | Previous Version | Graphics & Text | Print | Product List | Glossary On
Versions: 1 2 3 4 5 6 7 8 9 10 11 12 13 14 15 16 17 18 19 20 21 22 23
000
FTUS43 KABR 221700
TAFPIR
TAF
KPIR 221739Z 2218/2318 32018G23KT P6SM -RASN OVC015
      TEMPO 2218/2222 3SM -SN OVC015
     FM222200 32020G27KT 1SM -SN OVC015
     FM230300 33024G33KT 1/2SM -SN BLSN OVC008=

USA.gov is the U.S. government's official web portal to all federal, state and local government web resources and services.